Location: Hawks Ness
(60.2333°N, 1.1667°W)
Time: 22:33:25
(UTC+00:00)

Cosmos 1484 Rocket - Pass Details

Date: 22 October 2019
Orbit: 507 x 559 km, 97.4° (Epoch: 19 November)

Event Time Altitude Azimuth Distance (km) Brightness Sun altitude
Rises 04:55:20 0° 19° (NNE) 2,649 6.7 -16.2°
Reaches altitude 10° 04:57:31 10° 27° (NNE) 1,764 5.8 -15.9°
Maximum altitude 05:01:07 39° 98° (E) 803 4.2 -15.5°
Drops below altitude 10° 05:04:43 10° 168° (SSE) 1,777 5.5 -15.0°
Sets 05:06:57 0° 176° (S) 2,671 6.3 -14.7°
